Location: Bergfeld
(52.0500°N, 11.7833°E)
Time: 03:58:56
(UTC+00:00)

ALOS - Pass Details

Date: 17 February 2020
Orbit: 683 x 686 km, 97.8° (Epoch: 29 March)

Event Time Altitude Azimuth Distance (km) Brightness Sun altitude
Rises 03:33:58 0° 23° (NNE) 3,062 6.1 -26.8°
Reaches altitude 10° 03:36:34 10° 36° (NE) 2,141 5.4 -26.4°
Maximum altitude 03:40:27 25° 92° (E) 1,370 4.5 -25.8°
Drops below altitude 10° 03:44:17 10° 148° (SSE) 2,126 5.0 -25.3°
Sets 03:46:52 0° 161° (SSE) 3,036 5.7 -24.9°
